Wind_Speed
10 11 11 12 12 13 13 13 13 12 13 13 13 13 13 13 13 13 13 13 13 14 13 14 14 14 14 13 14 15 15 15 16 17 17 18 18 19
11 12 13 13 13 14 14 14 14 14 14 14 13 13 13 13 14 14 14 13 13 13 13 13 13 14 14 15 15 15 16 16 16 16 17 18 18 19
12 13 14 14 14 14 15 15 15 15 15 15 14 14 14 14 14 14 14 14 13 13 13 13 14 14 14 16 16 17 17 18 18 17 18 18 18 19
13 14 15 15 15 16 16 16 16 16 16 16 15 15 15 14 15 15 15 15 14 14 14 14 14 15 16 16 16 17 18 18 19 19 19 19 19 20
13 14 15 16 16 17 17 17 17 17 17 16 16 16 16 15 15 15 15 15 15 15 15 15 16 16 16 17 17 17 18 18 19 20 20 20 20 21
15 16 16 17 17 18 18 18 18 18 18 18 18 18 17 17 16 16 16 16 16 16 16 17 17 17 18 18 18 18 18 19 20 20 20 21 22 23
16 17 17 18 18 18 19 19 19 19 19 19 19 19 19 18 18 18 17 17 17 17 17 18 18 19 19 19 19 20 20 20 20 21 22 22 23 24
17 17 18 18 19 19 19 20 20 21 21 20 20 20 20 20 20 19 19 19 18 18 18 19 19 19 20 20 20 21 21 22 22 23 23 23 24 25
18 19 19 19 20 20 20 21 22 22 22 22 21 21 21 21 21 20 20 20 20 20 19 20 21 22 22 22 22 22 23 23 24 24 24 24 25 26
20 21 21 20 21 22 22 22 23 23 23 22 22 22 22 22 22 21 21 21 21 21 21 21 22 23 23 23 23 24 25 25 25 25 26 26 27 27
21 22 22 22 22 23 24 24 24 24 24 23 23 24 24 23 23 23 23 23 22 22 22 22 23 24 24 25 25 26 27 27 27 27 27 28 28 29
23 24 24 24 24 24 25 25 25 25 25 25 25 24 24 24 24 24 24 24 24 24 24 24 25 25 25 26 27 27 27 27 27 28 28 29 29 29
25 26 26 26 26 25 25 25 25 26 25 25 25 25 25 25 25 25 25 25 25 25 25 25 26 26 27 27 28 28 28 28 28 28 29 29 29 29
27 27 27 27 28 27 27 26 26 27 26 26 26 26 26 26 26 25 26 26 26 26 26 26 27 28 28 28 28 29 29 29 29 29 29 30 30 30
27 28 28 28 29 29 28 28 27 27 27 27 27 27 27 27 27 27 27 27 27 27 27 27 27 28 29 30 30 30 30 31 31 31 31 31 31 31
29 29 29 29 30 30 29 29 29 29 29 29 29 29 29 29 29 28 28 28 28 28 29 29 29 29 29 30 30 29 30 30 31 32 33 34 32 31
31 31 31 30 30 31 31 31 31 31 32 32 31 31 30 30 30 30 30 29 29 30 31 31 31 31 30 30 30 30 30 30 31 32 33 33 32 32
32 32 32 31 31 32 32 32 33 34 34 34 33 33 33 32 32 31 31 31 31 30 31 32 32 32 32 31 32 32 32 33 33 33 33 33 33 33
34 33 33 33 33 34 34 34 35 35 35 35 34 34 34 33 33 33 32 32 32 32 33 33 33 33 33 33 33 33 33 33 33 33 33 33 33 33
35 35 35 35 35 35 35 36 36 36 35 35 35 34 34 34 34 34 33 33 33 33 33 34 34 34 34 33 33 32 32 33 33 33 33 32 32 32
36 36 36 37 37 37 37 36 36 36 35 34 34 34 34 34 33 34 34 33 33 34 34 34 35 34 34 34 34 33 33 33 34 33 33 33 33 33
37 37 37 38 39 38 36 36 36 35 35 34 34 34 33 34 34 34 34 34 34 34 35 35 35 35 35 35 34 34 33 33 33 34 33 33 34 34
37 38 38 38 38 38 37 36 35 35 35 35 35 34 34 34 34 34 34 34 35 35 35 36 35 36 35 35 34 34 34 34 34 34 34 34 34 33
Wind_Direction
350 348 345 344 342 340 337 335 331 327 324 321 319 317 313 312 309 307 303 301 298 294 290 286 283 282 281 279 277 274 270 269 270 270 268 266 265 266
346 343 340 339 339 337 335 334 332 327 323 322 322 318 315 314 310 306 303 300 300 298 295 292 288 284 281 280 279 276 274 272 272 273 269 269 268 268
339 337 335 333 333 333 332 330 328 327 325 323 320 317 316 315 311 306 304 300 299 298 296 294 291 286 283 282 279 277 275 273 272 272 272 271 270 271
335 333 332 330 330 330 329 327 325 323 323 321 320 318 316 313 311 310 306 303 301 300 297 295 292 289 286 285 282 279 278 276 274 274 274 274 273 274
331 331 330 327 325 326 326 325 322 319 320 320 319 317 316 313 311 311 308 304 301 298 297 295 293 291 289 287 286 285 282 281 279 279 278 276 275 276
329 328 327 325 323 322 322 323 321 319 317 317 317 316 314 312 310 308 305 302 299 297 294 293 292 291 288 287 285 286 287 284 281 281 279 276 275 276
326 327 327 324 322 323 322 321 320 317 316 315 313 312 311 309 307 306 305 303 300 297 295 294 293 292 289 287 286 286 285 286 285 283 281 278 279 281
324 324 324 325 322 321 320 320 318 316 315 313 311 310 307 305 304 303 303 303 300 297 295 296 296 293 290 286 285 284 284 285 286 285 282 282 282 283
319 320 320 320 319 318 317 317 315 314 313 312 311 311 308 305 304 303 302 300 299 296 293 293 294 294 292 289 286 283 283 283 283 283 282 283 284 283
316 316 316 316 316 316 316 315 313 312 312 311 311 309 308 306 303 301 301 302 301 299 297 294 293 294 292 290 288 285 284 284 284 283 283 284 285 286
313 314 315 314 313 313 313 313 312 310 309 308 309 308 307 306 303 301 301 302 302 301 299 298 296 295 294 292 290 289 287 285 285 284 285 285 285 286
312 313 313 312 312 312 312 312 311 310 309 308 308 308 307 305 303 302 300 300 300 299 299 298 298 296 294 294 292 291 290 288 287 286 286 287 287 286
310 311 311 311 309 310 310 310 310 310 310 309 308 308 307 306 304 302 301 300 300 298 298 299 298 297 295 293 293 291 289 287 287 287 288 288 288 288
308 308 308 308 309 308 308 309 309 308 308 308 307 306 306 306 305 302 301 300 301 300 299 299 300 299 296 295 293 291 289 287 286 287 288 288 289 289
307 308 307 307 307 308 307 307 307 306 305 304 304 305 305 304 304 303 301 300 300 301 300 301 301 300 298 296 294 293 291 288 287 288 288 289 288 288
304 305 305 306 307 307 306 305 305 304 303 303 302 301 302 302 302 302 300 299 299 300 300 300 300 300 300 298 296 294 293 291 289 289 289 289 287 286
302 304 304 304 304 304 304 304 304 303 302 301 300 300 300 300 300 300 299 298 298 298 297 297 298 297 298 297 296 294 292 292 292 291 291 289 288 287
300 301 301 300 301 302 303 303 302 302 301 300 299 299 298 298 298 298 299 298 297 297 297 297 296 296 296 294 294 293 293 292 292 290 290 289 288 288
297 299 300 300 301 302 302 301 301 301 300 298 298 297 296 296 297 296 296 296 296 296 297 297 295 295 295 295 294 294 294 295 294 292 291 289 288 287
295 296 297 297 299 300 300 299 299 299 299 298 297 296 295 295 295 295 295 294 294 293 295 296 295 294 294 293 293 294 294 295 294 293 292 289 288 287
292 293 294 296 297 298 298 297 298 299 300 300 299 297 296 295 294 294 294 293 292 293 294 295 296 294 293 293 293 293 293 294 293 292 291 290 289 288
291 292 294 296 296 296 297 297 298 298 299 298 297 296 295 293 293 293 293 293 293 294 294 295 294 293 293 292 292 291 292 292 292 291 290 290 290 289
293 293 294 295 295 296 297 298 298 298 298 297 296 295 294 294 293 293 292 293 294 294 294 293 292 292 292 293 293 293 293 293 292 291 290 291 291 290
Height
5879 5876 5875 5872 5870 5868 5865 5863 5861 5858 5856 5854 5851 5849 5847 5844 5842 5840 5838 5836 5835 5833 5832 5830 5829 5828 5827 5826 5825 5824 5824 5823 5822 5821 5821 5820 5820 5820
5877 5875 5873 5870 5868 5865 5863 5860 5858 5856 5853 5851 5848 5846 5843 5841 5839 5837 5835 5833 5831 5829 5828 5826 5825 5824 5823 5822 5821 5820 5819 5819 5818 5817 5816 5815 5815 5814
5875 5873 5871 5868 5866 5863 5860 5858 5855 5853 5850 5848 5845 5843 5840 5838 5835 5833 5831 5829 5827 5825 5824 5823 5821 5820 5819 5818 5817 5816 5815 5814 5813 5812 5811 5810 5809 5809
5873 5871 5868 5866 5863 5860 5858 5855 5852 5850 5847 5844 5842 5839 5837 5834 5832 5830 5827 5825 5823 5822 5820 5819 5817 5816 5815 5813 5812 5811 5810 5809 5808 5807 5806 5805 5804 5803
5871 5868 5866 5863 5860 5858 5855 5852 5849 5846 5844 5841 5838 5836 5833 5831 5828 5826 5824 5821 5819 5817 5816 5814 5813 5811 5810 5809 5807 5806 5805 5804 5802 5801 5800 5799 5798 5797
5868 5865 5863 5860 5857 5854 5851 5848 5845 5843 5840 5837 5835 5832 5829 5827 5824 5822 5820 5817 5815 5813 5811 5809 5808 5806 5805 5804 5802 5801 5799 5798 5797 5795 5794 5793 5792 5791
5864 5862 5859 5856 5853 5851 5848 5845 5842 5839 5836 5833 5830 5828 5825 5822 5820 5817 5815 5813 5810 5808 5806 5804 5803 5801 5799 5798 5796 5795 5793 5792 5790 5789 5788 5786 5785 5784
5861 5858 5855 5852 5849 5847 5844 5841 5838 5835 5831 5829 5826 5823 5820 5817 5814 5812 5810 5807 5805 5804 5801 5799 5797 5795 5794 5792 5790 5789 5787 5785 5784 5782 5781 5779 5778 5776
5857 5854 5851 5848 5845 5842 5839 5836 5833 5829 5827 5824 5820 5817 5815 5812 5809 5806 5804 5802 5800 5798 5796 5793 5791 5789 5787 5785 5783 5781 5780 5778 5777 5775 5774 5772 5770 5769
5852 5849 5846 5843 5840 5837 5834 5830 5827 5824 5821 5818 5815 5812 5809 5806 5803 5801 5798 5796 5794 5791 5789 5787 5785 5783 5780 5778 5776 5774 5773 5771 5769 5767 5766 5764 5762 5760
5847 5844 5841 5838 5835 5831 5828 5825 5821 5818 5815 5812 5809 5806 5803 5800 5797 5795 5792 5789 5787 5785 5782 5780 5778 5775 5773 5770 5768 5766 5764 5762 5761 5759 5757 5755 5753 5752
5842 5839 5836 5832 5829 5825 5822 5819 5815 5812 5809 5805 5803 5800 5796 5793 5790 5788 5785 5783 5780 5778 5775 5773 5770 5768 5766 5763 5760 5758 5756 5754 5752 5750 5748 5746 5744 5743
5836 5832 5829 5826 5823 5819 5816 5812 5809 5806 5802 5799 5796 5793 5790 5786 5783 5781 5778 5776 5773 5770 5768 5765 5762 5760 5758 5756 5752 5750 5748 5746 5743 5741 5739 5737 5735 5734
5829 5826 5823 5819 5816 5813 5809 5806 5802 5799 5796 5792 5789 5786 5783 5779 5776 5773 5771 5768 5765 5763 5760 5757 5754 5751 5749 5747 5745 5742 5739 5737 5734 5732 5730 5728 5726 5724
5822 5819 5816 5813 5809 5806 5802 5799 5795 5792 5789 5786 5782 5779 5776 5772 5769 5766 5763 5760 5757 5754 5752 5749 5746 5743 5740 5738 5735 5733 5730 5727 5725 5723 5720 5718 5717 5714
5815 5812 5808 5805 5802 5798 5795 5791 5788 5784 5781 5778 5775 5772 5768 5765 5762 5758 5755 5752 5750 5747 5743 5740 5737 5734 5731 5728 5726 5723 5720 5718 5716 5713 5710 5708 5706 5704
5807 5804 5801 5797 5794 5790 5787 5784 5780 5777 5773 5770 5767 5763 5760 5757 5753 5750 5747 5744 5741 5739 5735 5731 5728 5725 5722 5719 5716 5714 5711 5708 5706 5703 5700 5698 5696 5694
5799 5796 5792 5789 5786 5782 5779 5775 5772 5768 5765 5761 5758 5754 5751 5748 5745 5742 5738 5735 5732 5729 5726 5722 5719 5716 5713 5710 5707 5704 5701 5698 5696 5693 5690 5688 5686 5684
5790 5787 5784 5780 5777 5773 5770 5766 5763 5759 5755 5751 5748 5745 5741 5738 5735 5732 5729 5726 5723 5720 5716 5713 5709 5706 5703 5700 5698 5694 5691 5688 5686 5683 5680 5678 5676 5674
5780 5777 5774 5771 5767 5764 5760 5757 5753 5749 5745 5741 5738 5735 5731 5728 5725 5722 5719 5716 5713 5710 5707 5703 5700 5696 5693 5690 5687 5685 5681 5678 5676 5673 5670 5668 5666 5663
5769 5767 5764 5761 5757 5754 5750 5746 5743 5739 5735 5731 5728 5725 5721 5718 5715 5712 5709 5706 5703 5700 5697 5694 5690 5686 5682 5680 5677 5675 5671 5668 5666 5663 5661 5658 5656 5654
5759 5756 5753 5750 5747 5743 5739 5736 5732 5729 5725 5722 5718 5715 5712 5708 5705 5702 5699 5696 5693 5690 5687 5683 5679 5676 5673 5670 5667 5664 5661 5659 5656 5653 5650 5649 5646 5644
5748 5745 5742 5739 5735 5732 5729 5725 5722 5718 5715 5711 5708 5705 5702 5699 5696 5693 5690 5687 5683 5680 5677 5673 5669 5666 5663 5660 5657 5654 5651 5649 5646 5643 5641 5638 5635 5633